This is the latest recevied weather packets stored in our database for station/object KJ6BBX. If no packets are shown the sender has not sent any weather packets the latest 10 day(s).
| Time | Temp. | Humidity | Pressure | Rain* | Wind** | Luminosity | Snow |
|---|---|---|---|---|---|---|---|
| 1777797314 | 15° C | 91% | 1005.5 hPa | 0 mm | - | 0 W/m² | - |
| 1777796414 | 15° C | 91% | 1005.4 hPa | 0 mm | - | 0 W/m² | - |
| 1777795514 | 14.44° C | 92% | 1005.2 hPa | 0 mm | - | 0 W/m² | - |
| 1777794614 | 14.44° C | 93% | 1005.1 hPa | 0 mm | - | 0 W/m² | - |
| 1777793715 | 14.44° C | 93% | 1005.1 hPa | 0 mm | - | 0 W/m² | - |
| 1777792813 | 14.44° C | 94% | 1005.2 hPa | 0 mm | - | 0 W/m² | - |
| 1777791915 | 14.44° C | 94% | 1004.8 hPa | 0 mm | - | 0 W/m² | - |
| 1777791014 | 13.89° C | 95% | 1005 hPa | 0 mm | - | 0 W/m² | - |
| 1777790114 | 13.89° C | 95% | 1004.9 hPa | 0 mm | - | 0 W/m² | - |
| 1777789214 | 13.89° C | 95% | 1004.7 hPa | 0 mm | - | 0 W/m² | - |
| 1777788314 | 13.89° C | 94% | 1004.7 hPa | 0 mm | - | 0 W/m² | - |
| 1777787415 | 13.89° C | 93% | 1005 hPa | 0 mm | - | 0 W/m² | - |
| 1777786514 | 13.89° C | 93% | 1005.4 hPa | 0 mm | - | 0 W/m² | - |
| 1777785614 | 14.44° C | 92% | 1005.2 hPa | 0 mm | - | 0 W/m² | - |
| 1777784714 | 14.44° C | 92% | 1005.1 hPa | 0 mm | - | 0 W/m² | - |
| 1777783813 | 14.44° C | 91% | 1004.7 hPa | 0 mm | - | 0 W/m² | - |
| 1777782914 | 15° C | 90% | 1004.6 hPa | 0 mm | - | 0 W/m² | - |
| 1777782014 | 15° C | 89% | 1004.5 hPa | 0 mm | - | 0 W/m² | - |
| 1777781114 | 15° C | 88% | 1004.2 hPa | 0 mm | - | 0 W/m² | - |
| 1777780214 | 15.56° C | 88% | 1004 hPa | 0 mm | - | 0 W/m² | - |
| 1777779314 | 15.56° C | 86% | 1003.7 hPa | 0 mm | - | 0 W/m² | - |
| 1777778414 | 16.11° C | 85% | 1003.6 hPa | 0 mm | - | 0 W/m² | - |
| 1777777514 | 16.67° C | 83% | 1003.1 hPa | 0 mm | - | 0 W/m² | - |
| 1777776614 | 16.67° C | 82% | 1003 hPa | 0 mm | - | 0 W/m² | - |
| 1777775713 | 17.22° C | 80% | 1003 hPa | 0 mm | - | 2 W/m² | - |
* Rain since midnight (hover to see other rain measurements)
** Current wind speed in m/s (hover to see current wind gust speed)